Location: Gwatt
(46.7204°N, 7.6223°E)
Time: 22:56:51
(UTC+00:00)

Tiros 1 despin weight - Pass Details

Date: 24 January 2021
Orbit: 593 x 642 km, 48.2° (Epoch: 08 March)

Event Time Altitude Azimuth Distance (km) Brightness Sun altitude
Rises 18:36:48 0° 287° (WNW) 2,855 ? -23.0°
Reaches altitude 10° 18:39:08 10° 283° (WNW) 1,943 ? -23.4°
Maximum altitude 18:43:30 58° 205° (SSW) 700 ? -24.2°
Enters shadow 18:43:49 56° 185° (S) 712 ? -24.2°
